TimeCST,TemperatureF,Dew PointF,Humidity,Sea Level PressureIn,VisibilityMPH,Wind Direction,Wind SpeedMPH,Gust SpeedMPH,PrecipitationIn,Events,Conditions,WindDirDegrees,DateUTC
12:15 AM,69.8,53.6,56,30.17,10.0,South,16.1,25.3,N/A,,Overcast,180,2013-12-19 06:15:00
12:35 AM,69.8,51.8,53,30.16,10.0,South,24.2,31.1,N/A,,Overcast,180,2013-12-19 06:35:00
12:55 AM,69.8,53.6,56,30.16,10.0,South,20.7,27.6,N/A,,Overcast,180,2013-12-19 06:55:00
1:15 AM,71.6,53.6,53,30.15,10.0,South,23.0,-,N/A,,Overcast,180,2013-12-19 07:15:00
1:35 AM,71.6,53.6,53,30.15,10.0,South,24.2,-,N/A,,Overcast,170,2013-12-19 07:35:00
1:55 AM,71.6,53.6,53,30.14,10.0,South,24.2,-,N/A,,Overcast,180,2013-12-19 07:55:00
2:15 AM,71.6,55.4,57,30.13,10.0,SSE,21.9,28.8,N/A,,Overcast,160,2013-12-19 08:15:00
2:35 AM,71.6,55.4,57,30.13,10.0,SSE,21.9,-,N/A,,Overcast,160,2013-12-19 08:35:00
2:55 AM,71.6,51.8,50,30.12,10.0,South,23.0,-,N/A,,Scattered Clouds,170,2013-12-19 08:55:00
3:15 AM,71.6,53.6,53,30.12,10.0,South,24.2,-,N/A,,Mostly Cloudy,170,2013-12-19 09:15:00
3:35 AM,71.6,55.4,57,30.12,10.0,South,20.7,-,N/A,,Scattered Clouds,180,2013-12-19 09:35:00
3:55 AM,71.6,57.2,60,30.11,10.0,South,18.4,-,N/A,,Scattered Clouds,170,2013-12-19 09:55:00
4:15 AM,71.6,57.2,60,30.11,10.0,South,19.6,25.3,N/A,,Mostly Cloudy,190,2013-12-19 10:15:00
4:35 AM,71.6,57.2,60,30.10,10.0,South,18.4,24.2,N/A,,Overcast,180,2013-12-19 10:35:00
4:55 AM,73.4,57.2,57,30.09,10.0,South,24.2,-,N/A,,Overcast,190,2013-12-19 10:55:00
5:15 AM,71.6,53.6,53,30.09,10.0,South,23.0,-,N/A,,Scattered Clouds,180,2013-12-19 11:15:00
5:35 AM,73.4,55.4,53,30.09,10.0,South,23.0,-,N/A,,Mostly Cloudy,180,2013-12-19 11:35:00
5:55 AM,73.4,55.4,53,30.09,10.0,South,23.0,-,N/A,,Scattered Clouds,180,2013-12-19 11:55:00
6:15 AM,73.4,57.2,57,30.09,10.0,South,19.6,-,N/A,,Overcast,180,2013-12-19 12:15:00
6:35 AM,73.4,57.2,57,30.09,10.0,South,17.3,26.5,N/A,,Mostly Cloudy,170,2013-12-19 12:35:00
6:55 AM,73.4,55.4,53,30.09,10.0,SSE,21.9,-,N/A,,Partly Cloudy,160,2013-12-19 12:55:00
7:15 AM,73.4,57.2,57,30.09,10.0,SSE,21.9,-,N/A,,Clear,150,2013-12-19 13:15:00
7:35 AM,73.4,57.2,57,30.09,10.0,SSE,20.7,27.6,N/A,,Clear,160,2013-12-19 13:35:00
7:55 AM,73.4,57.2,57,30.09,10.0,SSE,24.2,31.1,N/A,,Clear,160,2013-12-19 13:55:00
8:15 AM,73.4,57.2,57,30.09,-9999.0,SSE,25.3,-,N/A,,Clear,160,2013-12-19 14:15:00
8:35 AM,73.4,57.2,57,30.10,10.0,SSE,23.0,-,N/A,,Clear,160,2013-12-19 14:35:00
8:55 AM,73.4,59.0,61,30.10,10.0,SSE,23.0,-,N/A,,Clear,160,2013-12-19 14:55:00
9:15 AM,73.4,59.0,61,30.10,10.0,South,24.2,-,N/A,,Clear,170,2013-12-19 15:15:00
9:35 AM,75.2,57.2,53,30.11,10.0,SSE,24.2,-,N/A,,Clear,160,2013-12-19 15:35:00
9:55 AM,75.2,59.0,57,30.11,10.0,SSE,23.0,28.8,N/A,,Clear,160,2013-12-19 15:55:00
10:15 AM,75.2,59.0,57,30.11,10.0,SSE,19.6,28.8,N/A,,Clear,160,2013-12-19 16:15:00
10:35 AM,75.2,59.0,57,30.10,10.0,South,25.3,-,N/A,,Clear,170,2013-12-19 16:35:00
10:55 AM,75.2,59.0,57,30.10,10.0,South,23.0,28.8,N/A,,Clear,170,2013-12-19 16:55:00
11:15 AM,75.2,59.0,57,30.09,10.0,SSE,21.9,-,N/A,,Clear,160,2013-12-19 17:15:00
11:35 AM,75.2,59.0,57,30.08,10.0,SSE,25.3,-,N/A,,Clear,160,2013-12-19 17:35:00
11:55 AM,75.2,60.8,61,30.07,10.0,South,23.0,-,N/A,,Clear,170,2013-12-19 17:55:00
12:15 PM,75.2,60.8,61,30.07,10.0,South,24.2,-,N/A,,Clear,170,2013-12-19 18:15:00
12:35 PM,75.2,60.8,61,30.06,10.0,South,23.0,-,N/A,,Clear,170,2013-12-19 18:35:00
12:55 PM,75.2,60.8,61,30.05,10.0,South,19.6,-,N/A,,Clear,170,2013-12-19 18:55:00
1:15 PM,75.2,60.8,61,30.04,10.0,South,16.1,23.0,N/A,,Clear,170,2013-12-19 19:15:00
1:35 PM,75.2,62.6,65,30.02,10.0,South,21.9,-,N/A,,Clear,170,2013-12-19 19:35:00
1:55 PM,75.2,60.8,61,30.02,10.0,South,19.6,-,N/A,,Clear,170,2013-12-19 19:55:00
2:15 PM,75.2,62.6,65,30.01,10.0,South,23.0,-,N/A,,Clear,170,2013-12-19 20:15:00
2:35 PM,75.2,62.6,65,30.00,10.0,South,19.6,25.3,N/A,,Clear,170,2013-12-19 20:35:00
2:55 PM,75.2,64.4,69,30.00,10.0,SSE,18.4,-,N/A,,Clear,160,2013-12-19 20:55:00
3:15 PM,75.2,64.4,69,30.00,10.0,SSE,17.3,-,N/A,,Clear,160,2013-12-19 21:15:00
3:35 PM,75.2,64.4,69,29.99,9.0,SSE,20.7,-,N/A,,Clear,160,2013-12-19 21:35:00
3:55 PM,75.2,64.4,69,29.99,10.0,SSE,21.9,-,N/A,,Clear,160,2013-12-19 21:55:00
4:15 PM,75.2,64.4,69,29.99,10.0,SSE,23.0,-,N/A,,Clear,160,2013-12-19 22:15:00
4:35 PM,75.2,64.4,69,29.99,10.0,SSE,21.9,-,N/A,,Clear,160,2013-12-19 22:35:00
4:55 PM,73.4,66.2,78,29.99,10.0,SSE,20.7,-,N/A,,Clear,160,2013-12-19 22:55:00
5:15 PM,73.4,66.2,78,29.99,9.0,SSE,19.6,-,N/A,,Partly Cloudy,160,2013-12-19 23:15:00
5:35 PM,75.2,66.2,73,29.99,9.0,SSE,20.7,-,N/A,,Partly Cloudy,150,2013-12-19 23:35:00
5:55 PM,73.4,66.2,78,30.00,10.0,SSE,20.7,-,N/A,,Mostly Cloudy,150,2013-12-19 23:55:00
6:15 PM,75.2,66.2,73,30.00,10.0,SSE,21.9,-,N/A,,Overcast,150,2013-12-20 00:15:00
6:35 PM,73.4,66.2,78,30.00,10.0,SSE,21.9,-,N/A,,Overcast,160,2013-12-20 00:35:00
6:55 PM,73.4,66.2,78,29.99,10.0,SSE,25.3,-,N/A,,Overcast,150,2013-12-20 00:55:00
7:15 PM,73.4,66.2,78,30.00,10.0,SSE,21.9,27.6,N/A,,Mostly Cloudy,150,2013-12-20 01:15:00
7:35 PM,73.4,66.2,78,30.00,10.0,SSE,20.7,26.5,N/A,,Mostly Cloudy,150,2013-12-20 01:35:00
7:55 PM,73.4,66.2,78,29.99,10.0,SSE,24.2,-,N/A,,Mostly Cloudy,150,2013-12-20 01:55:00
8:15 PM,73.4,68.0,83,29.99,10.0,SSE,24.2,-,N/A,,Mostly Cloudy,150,2013-12-20 02:15:00
8:35 PM,73.4,66.2,78,29.99,10.0,SSE,26.5,-,N/A,,Mostly Cloudy,150,2013-12-20 02:35:00
8:55 PM,73.4,66.2,78,29.99,10.0,SSE,25.3,-,N/A,,Mostly Cloudy,150,2013-12-20 02:55:00
9:15 PM,75.2,66.2,73,29.99,10.0,SSE,25.3,-,N/A,,Overcast,160,2013-12-20 03:15:00
9:35 PM,75.2,66.2,73,29.99,10.0,SSE,27.6,-,N/A,,Overcast,160,2013-12-20 03:35:00
9:55 PM,75.2,66.2,73,29.99,10.0,SSE,25.3,31.1,N/A,,Overcast,160,2013-12-20 03:55:00
10:15 PM,75.2,66.2,73,29.99,10.0,SSE,26.5,33.4,N/A,,Overcast,160,2013-12-20 04:15:00
10:35 PM,73.4,66.2,78,29.99,10.0,SSE,25.3,31.1,N/A,,Partly Cloudy,160,2013-12-20 04:35:00
10:55 PM,73.4,66.2,78,29.99,10.0,SSE,24.2,31.1,N/A,,Clear,160,2013-12-20 04:55:00
11:15 PM,73.4,66.2,78,29.98,10.0,SSE,26.5,32.2,N/A,,Scattered Clouds,160,2013-12-20 05:15:00
11:35 PM,73.4,66.2,78,29.97,10.0,SSE,25.3,-,N/A,,Scattered Clouds,150,2013-12-20 05:35:00
11:55 PM,73.4,66.2,78,29.96,10.0,SSE,23.0,31.1,N/A,,Scattered Clouds,150,2013-12-20 05:55:00